| time (UTC) | temp C | wind direction | speed KPH | gust KPH | rain 1hr cm | rain 24hr cm | rain mn cm | humidity % | barometer mb |
| 20260904210008 | 35 | 313 | 1.6 | 6.4 | 0.00 | 0.00 | 0.00 | 55 | 1011.6 |
| 20260904205506 | 35 | 271 | 1.6 | 6.4 | 0.00 | 0.00 | 0.00 | 55 | 1011.5 |
| 20260904205006 | 35 | 255 | 1.6 | 6.4 | 0.00 | 0.00 | 0.00 | 53 | 1011.5 |
| 20260904204503 | 35 | 190 | 1.6 | 9.7 | 0.00 | 0.00 | 0.00 | 52 | 1011.5 |
| 20260904204003 | 35 | 260 | 4.8 | 12.9 | 0.00 | 0.00 | 0.00 | 53 | 1011.5 |
| 20260904203502 | 35 | 163 | 1.6 | 12.9 | 0.00 | 0.00 | 0.00 | 55 | 1011.6 |
| 20260904203004 | 35 | 294 | 1.6 | 6.4 | 0.00 | 0.00 | 0.00 | 55 | 1011.7 |
| 20260904202502 | 35 | 11 | 3.2 | 6.4 | 0.00 | 0.00 | 0.00 | 53 | 1011.7 |
| 20260904202005 | 34 | 351 | 1.6 | 6.4 | 0.00 | 0.00 | 0.00 | 53 | 1011.8 |
| 20260904201511 | 35 | 195 | 3.2 | 6.4 | 0.00 | 0.00 | 0.00 | 53 | 1011.8 |
| 20260904201003 | 35 | 321 | 1.6 | 6.4 | 0.00 | 0.00 | 0.00 | 58 | 1011.8 |
| 20260904200505 | 35 | 236 | 1.6 | 6.4 | 0.00 | 0.00 | 0.00 | 54 | 1011.8 |
| 20260904200018 | 35 | 110 | 1.6 | 6.4 | 0.00 | 0.00 | 0.00 | 54 | 1011.8 |
| 20260904195503 | 35 | 113 | 1.6 | 9.7 | 0.00 | 0.00 | 0.00 | 54 | 1011.9 |
| 20260904195017 | 35 | 303 | 1.6 | 9.7 | 0.00 | 0.00 | 0.00 | 55 | 1011.9 |
| 20260904194512 | 35 | 299 | 1.6 | 6.4 | 0.00 | 0.00 | 0.00 | 58 | 1011.9 |
| 20260904194011 | 34 | 230 | 1.6 | 9.7 | 0.00 | 0.00 | 0.00 | 55 | 1011.9 |
| 20260904193515 | 34 | 118 | 3.2 | 9.7 | 0.00 | 0.00 | 0.00 | 55 | 1012.0 |
| 20260904193003 | 34 | 161 | 3.2 | 9.7 | 0.00 | 0.00 | 0.00 | 55 | 1012.0 |
| 20260904192502 | 34 | 315 | 3.2 | 6.4 | 0.00 | 0.00 | 0.00 | 56 | 1012.0 |
| 20260904192004 | 34 | 319 | 1.6 | 6.4 | 0.00 | 0.00 | 0.00 | 54 | 1012.1 |
| 20260904191504 | 34 | 128 | 1.6 | 6.4 | 0.00 | 0.00 | 0.00 | 55 | 1012.1 |
| 20260904191007 | 34 | 182 | 3.2 | 9.7 | 0.00 | 0.00 | 0.00 | 54 | 1012.1 |
| 20260904190506 | 34 | 333 | 3.2 | 9.7 | 0.00 | 0.00 | 0.00 | 56 | 1012.1 |
| 20260904190013 | 35 | 275 | 1.6 | 4.8 | 0.00 | 0.00 | 0.00 | 56 | 1012.1 |
| 20260904185506 | 34 | 144 | 1.6 | 9.7 | 0.00 | 0.00 | 0.00 | 56 | 1012.1 |
| 20260904185007 | 33 | 45 | 3.2 | 9.7 | 0.00 | 0.00 | 0.00 | 56 | 1012.1 |
| 20260904184521 | 33 | 293 | 0.0 | 9.7 | 0.00 | 0.00 | 0.00 | 56 | 1012.3 |
| 20260904184013 | 33 | 345 | 3.2 | 9.7 | 0.00 | 0.00 | 0.00 | 58 | 1012.3 |
| 20260904183504 | 33 | 286 | 4.8 | 9.7 | 0.00 | 0.00 | 0.00 | 55 | 1012.3 |
| 20260904183016 | 33 | 281 | 3.2 | 6.4 | 0.00 | 0.00 | 0.00 | 55 | 1012.4 |
| 20260904182514 | 33 | 196 | 1.6 | 4.8 | 0.00 | 0.00 | 0.00 | 56 | 1012.4 |
| 20260904182019 | 33 | 87 | 3.2 | 6.4 | 0.00 | 0.00 | 0.00 | 58 | 1012.4 |
| 20260904181504 | 33 | 261 | 1.6 | 6.4 | 0.00 | 0.00 | 0.00 | 57 | 1012.4 |
| 20260904181004 | 32 | 260 | 1.6 | 4.8 | 0.00 | 0.00 | 0.00 | 56 | 1012.4 |
| 20260904180506 | 33 | 319 | 0.0 | 4.8 | 0.00 | 0.00 | 0.00 | 58 | 1012.5 |
| 20260904180011 | 33 | 325 | 1.6 | 6.4 | 0.00 | 0.00 | 0.00 | 60 | 1012.5 |
| 20260904175509 | 33 | 115 | 1.6 | 6.4 | 0.00 | 0.00 | 0.00 | 59 | 1012.4 |
| 20260904175009 | 33 | 310 | 3.2 | 6.4 | 0.00 | 0.00 | 0.00 | 57 | 1012.5 |
| 20260904174510 | 33 | 163 | 1.6 | 8.0 | 0.00 | 0.00 | 0.00 | 1012.5 | |
| 20260904174008 | 33 | 327 | 1.6 | 8.0 | 0.00 | 0.00 | 0.00 | 1012.6 | |
| 20260904173510 | 32 | 343 | 3.2 | 9.7 | 0.00 | 0.00 | 0.00 | 1012.6 | |
| 20260904173012 | 32 | 171 | 3.2 | 9.7 | 0.00 | 0.00 | 0.00 | 62 | 1012.7 |
| 20260904172504 | 31 | 352 | 1.6 | 11.3 | 0.00 | 0.00 | 0.00 | 62 | 1012.7 |
| 20260904172010 | 32 | 259 | 1.6 | 11.3 | 0.00 | 0.00 | 0.00 | 59 | 1012.7 |
| 20260904171527 | 32 | 297 | 3.2 | 11.3 | 0.00 | 0.00 | 0.00 | 59 | 1012.7 |
| 20260904171016 | 32 | 327 | 1.6 | 11.3 | 0.00 | 0.00 | 0.00 | 58 | 1012.7 |
| 20260904170505 | 32 | 269 | 4.8 | 11.3 | 0.00 | 0.00 | 0.00 | 60 | 1012.6 |
| 20260904170009 | 32 | 132 | 3.2 | 4.8 | 0.00 | 0.00 | 0.00 | 60 | 1012.6 |
| 20260904165508 | 31 | 98 | 1.6 | 4.8 | 0.00 | 0.00 | 0.00 | 62 | 1012.6 |
| 20260904165007 | 31 | 222 | 1.6 | 6.4 | 0.00 | 0.00 | 0.00 | 64 | 1012.7 |
| 20260904164513 | 31 | 147 | 1.6 | 6.4 | 0.00 | 0.00 | 0.00 | 62 | 1012.7 |
| 20260904164011 | 31 | 272 | 1.6 | 6.4 | 0.00 | 0.00 | 0.00 | 65 | 1012.7 |
| 20260904163514 | 30 | 327 | 0.0 | 6.4 | 0.00 | 0.00 | 0.00 | 65 | 1012.7 |
| 20260904163013 | 30 | 263 | 3.2 | 6.4 | 0.00 | 0.00 | 0.00 | 63 | 1012.6 |
| 20260904162510 | 31 | 179 | 1.6 | 11.3 | 0.00 | 0.00 | 0.00 | 62 | 1012.5 |
| 20260904162014 | 31 | 161 | 3.2 | 11.3 | 0.00 | 0.00 | 0.00 | 62 | 1012.5 |
| 20260904161509 | 31 | 300 | 3.2 | 6.4 | 0.00 | 0.00 | 0.00 | 61 | 1012.6 |
| 20260904161013 | 31 | 22 | 1.6 | 6.4 | 0.00 | 0.00 | 0.00 | 63 | 1012.7 |
| 20260904160512 | 30 | 294 | 1.6 | 6.4 | 0.00 | 0.00 | 0.00 | 64 | 1012.7 |
| 20260904160017 | 30 | 203 | 1.6 | 6.4 | 0.00 | 0.00 | 0.00 | 64 | 1012.8 |
| 20260904155516 | 30 | 310 | 1.6 | 6.4 | 0.00 | 0.00 | 0.00 | 64 | 1012.8 |
| 20260904155006 | 30 | 269 | 1.6 | 8.0 | 0.00 | 0.00 | 0.00 | 64 | 1012.8 |
| 20260904154508 | 30 | 307 | 1.6 | 8.0 | 0.00 | 0.00 | 0.00 | 66 | 1012.8 |
| 20260904154006 | 30 | 189 | 1.6 | 6.4 | 0.00 | 0.00 | 0.00 | 65 | 1012.7 |
| 20260904153511 | 30 | 180 | 1.6 | 6.4 | 0.00 | 0.00 | 0.00 | 65 | 1012.7 |
| 20260904153020 | 30 | 213 | 1.6 | 6.4 | 0.00 | 0.00 | 0.00 | 65 | 1012.7 |
| 20260904152502 | 30 | 102 | 0.0 | 6.4 | 0.00 | 0.00 | 0.00 | 66 | 1012.7 |
| 20260904152010 | 29 | 143 | 1.6 | 6.4 | 0.00 | 0.00 | 0.00 | 66 | 1012.6 |
| 20260904151508 | 29 | 339 | 3.2 | 8.0 | 0.00 | 0.00 | 0.00 | 68 | 1012.7 |
| 20260904151013 | 28 | 333 | 1.6 | 8.0 | 0.00 | 0.00 | 0.00 | 67 | 1012.7 |
| 20260904150503 | 28 | 34 | 1.6 | 4.8 | 0.00 | 0.00 | 0.00 | 67 | 1012.7 |
| 20260904150015 | 28 | 292 | 0.0 | 4.8 | 0.00 | 0.00 | 0.00 | 70 | 1012.7 |
| 20260904145504 | 28 | 180 | 1.6 | 4.8 | 0.00 | 0.00 | 0.00 | 68 | 1012.7 |
| 20260904145005 | 28 | 188 | 1.6 | 4.8 | 0.00 | 0.00 | 0.00 | 68 | 1012.8 |
| 20260904144502 | 28 | 273 | 1.6 | 4.8 | 0.00 | 0.00 | 0.00 | 69 | 1012.7 |
| 20260904144008 | 28 | 269 | 1.6 | 4.8 | 0.00 | 0.00 | 0.00 | 69 | 1012.8 |
| 20260904143504 | 28 | 346 | 1.6 | 6.4 | 0.00 | 0.00 | 0.00 | 70 | 1012.7 |
| 20260904143010 | 27 | 188 | 0.0 | 6.4 | 0.00 | 0.00 | 0.00 | 70 | 1012.7 |
| 20260904142510 | 27 | 223 | 1.6 | 4.8 | 0.00 | 0.00 | 0.00 | 70 | 1012.7 |
| 20260904142003 | 27 | 283 | 0.0 | 3.2 | 0.00 | 0.00 | 0.00 | 72 | 1012.7 |
| 20260904141508 | 27 | 173 | 1.6 | 4.8 | 0.00 | 0.00 | 0.00 | 70 | 1012.7 |
| 20260904141010 | 27 | 159 | 0.0 | 4.8 | 0.00 | 0.00 | 0.00 | 71 | 1012.7 |
| 20260904140503 | 27 | 225 | 0.0 | 3.2 | 0.00 | 0.00 | 0.00 | 71 | 1012.7 |
| 20260904140019 | 27 | 225 | 1.6 | 3.2 | 0.00 | 0.00 | 0.00 | 72 | 1012.7 |
| 20260904135504 | 27 | 286 | 0.0 | 6.4 | 0.00 | 0.00 | 0.00 | 72 | 1012.7 |
| 20260904135004 | 27 | 172 | 1.6 | 6.4 | 0.00 | 0.00 | 0.00 | 72 | 1012.7 |
| 20260904134507 | 26 | 111 | 0.0 | 3.2 | 0.00 | 0.00 | 0.00 | 73 | 1012.6 |
| 20260904134002 | 26 | 198 | 0.0 | 3.2 | 0.00 | 0.00 | 0.00 | 73 | 1012.6 |
| 20260904133507 | 26 | 242 | 0.0 | 6.4 | 0.00 | 0.00 | 0.00 | 73 | 1012.5 |
| 20260904133011 | 26 | 216 | 3.2 | 6.4 | 0.00 | 0.00 | 0.00 | 73 | 1012.4 |
| 20260904132510 | 26 | 192 | 1.6 | 6.4 | 0.00 | 0.00 | 0.00 | 73 | 1012.3 |
| 20260904132005 | 26 | 171 | 1.6 | 6.4 | 0.00 | 0.00 | 0.00 | 73 | 1012.3 |
| 20260904131510 | 26 | 182 | 0.0 | 3.2 | 0.00 | 0.00 | 0.00 | 73 | 1012.2 |
| 20260904131013 | 26 | 182 | 0.0 | 3.2 | 0.00 | 0.00 | 0.00 | 75 | 1012.1 |
| 20260904130505 | 26 | 121 | 0.0 | 3.2 | 0.00 | 0.00 | 0.00 | 75 | 1012.1 |
| 20260904130007 | 26 | 112 | 0.0 | 3.2 | 0.00 | 0.00 | 0.00 | 75 | 1012.1 |
| 20260904125512 | 26 | 214 | 0.0 | 3.2 | 0.00 | 0.00 | 0.00 | 77 | 1012.0 |
| 20260904125016 | 25 | 214 | 0.0 | 3.2 | 0.00 | 0.00 | 0.00 | 77 | 1012.0 |
| 20260904124508 | 25 | 215 | 0.0 | 3.2 | 0.00 | 0.00 | 0.00 | 78 | 1011.9 |
| 20260904124005 | 25 | 215 | 0.0 | 3.2 | 0.00 | 0.00 | 0.00 | 77 | 1011.8 |
| 20260904123508 | 25 | 154 | 0.0 | 3.2 | 0.00 | 0.00 | 0.00 | 78 | 1011.7 |
| 20260904123007 | 25 | 154 | 0.0 | 3.2 | 0.00 | 0.00 | 0.00 | 77 | 1011.6 |
| 20260904122656 | 25 | 154 | 0.0 | 3.2 | 0.00 | 0.00 | 0.00 | 77 | 1011.6 |
| 20260904122651 | 25 | 153 | 0.0 | 3.2 | 0.00 | 0.00 | 0.00 | 76 | 1011.6 |
| 20260904122647 | 25 | 153 | 0.0 | 3.2 | 0.00 | 0.00 | 0.00 | 76 | 1011.6 |
| 20260904122644 | 25 | 153 | 0.0 | 3.2 | 0.00 | 0.00 | 0.00 | 77 | 1011.6 |
| 20260904120511 | 25 | 153 | 0.0 | 3.2 | 0.00 | 0.00 | 0.00 | 77 | 1011.6 |
| 20260904120020 | 25 | 153 | 0.0 | 3.2 | 0.00 | 0.00 | 0.00 | 76 | 1011.5 |
| 20260904115509 | 25 | 153 | 0.0 | 3.2 | 0.00 | 0.00 | 0.00 | 76 | 1011.5 |
| 20260904115009 | 25 | 153 | 0.0 | 3.2 | 0.00 | 0.00 | 0.00 | 75 | 1011.5 |
| 20260904114520 | 25 | 153 | 0.0 | 1.6 | 0.00 | 0.00 | 0.00 | 75 | 1011.5 |
| 20260904114007 | 25 | 153 | 0.0 | 3.2 | 0.00 | 0.00 | 0.00 | 75 | 1011.5 |
| 20260904113506 | 25 | 153 | 0.0 | 3.2 | 0.00 | 0.00 | 0.00 | 74 | 1011.5 |
| 20260904113020 | 25 | 138 | 0.0 | 3.2 | 0.00 | 0.00 | 0.00 | 74 | 1011.5 |
| 20260904112507 | 25 | 154 | 0.0 | 3.2 | 0.00 | 0.00 | 0.00 | 74 | 1011.5 |
| 20260904112007 | 25 | 182 | 0.0 | 3.2 | 0.00 | 0.00 | 0.00 | 73 | 1011.5 |
| 20260904111517 | 26 | 180 | 0.0 | 3.2 | 0.00 | 0.00 | 0.00 | 73 | 1011.5 |
| 20260904111010 | 26 | 198 | 0.0 | 3.2 | 0.00 | 0.00 | 0.00 | 73 | 1011.5 |
| 20260904110512 | 26 | 196 | 0.0 | 3.2 | 0.00 | 0.00 | 0.00 | 72 | 1011.5 |
| 20260904110010 | 26 | 181 | 0.0 | 4.8 | 0.00 | 0.00 | 0.00 | 72 | 1011.5 |
| 20260904105512 | 26 | 173 | 0.0 | 4.8 | 0.00 | 0.00 | 0.00 | 72 | 1011.4 |
| 20260904105012 | 26 | 150 | 0.0 | 6.4 | 0.00 | 0.00 | 0.00 | 72 | 1011.4 |
| 20260904104528 | 26 | 165 | 0.0 | 8.0 | 0.00 | 0.00 | 0.00 | 71 | 1011.3 |
| 20260904104012 | 26 | 256 | 0.0 | 8.0 | 0.00 | 0.00 | 0.00 | 71 | 1011.3 |
| 20260904103511 | 26 | 204 | 0.0 | 6.4 | 0.00 | 0.00 | 0.00 | 70 | 1011.4 |
| 20260904103041 | 26 | 328 | 1.6 | 6.4 | 0.00 | 0.00 | 0.00 | 70 | 1011.4 |
| 20260904102506 | 26 | 194 | 1.6 | 4.8 | 0.00 | 0.00 | 0.00 | 70 | 1011.4 |
| 20260904102006 | 26 | 137 | 1.6 | 4.8 | 0.00 | 0.00 | 0.00 | 70 | 1011.4 |
| 20260904101514 | 26 | 322 | 0.0 | 6.4 | 0.00 | 0.00 | 0.00 | 69 | 1011.3 |
| 20260904101009 | 27 | 248 | 1.6 | 6.4 | 0.00 | 0.03 | 0.00 | 69 | 1011.3 |
| 20260904100512 | 27 | 306 | 3.2 | 6.4 | 0.00 | 0.05 | 0.00 | 68 | 1011.3 |
| 20260904100018 | 27 | 123 | 1.6 | 8.0 | 0.00 | 0.05 | 0.00 | 68 | 1011.3 |
| 20260904095512 | 27 | 197 | 1.6 | 9.7 | 0.00 | 0.05 | 0.00 | 68 | 1011.2 |
| 20260904095012 | 27 | 242 | 3.2 | 12.9 | 0.00 | 0.05 | 0.00 | 68 | 1011.2 |
| 20260904094521 | 27 | 293 | 4.8 | 12.9 | 0.00 | 0.05 | 0.00 | 68 | 1011.1 |
| 20260904094007 | 27 | 207 | 3.2 | 11.3 | 0.00 | 0.05 | 0.00 | 68 | 1011.2 |
| 20260904093515 | 27 | 322 | 3.2 | 9.7 | 0.00 | 0.05 | 0.00 | 68 | 1011.1 |
| 20260904093018 | 27 | 157 | 1.6 | 9.7 | 0.00 | 0.05 | 0.00 | 67 | 1011.0 |
| 20260904092512 | 27 | 274 | 1.6 | 9.7 | 0.00 | 0.05 | 0.00 | 67 | 1011.0 |
| 20260904092016 | 27 | 211 | 3.2 | 9.7 | 0.00 | 0.05 | 0.00 | 67 | 1010.9 |
| 20260904091516 | 27 | 168 | 0.0 | 6.4 | 0.00 | 0.05 | 0.00 | 67 | 1010.8 |
| 20260904091015 | 27 | 245 | 1.6 | 8.0 | 0.00 | 0.05 | 0.00 | 67 | 1010.8 |
| 20260904090513 | 27 | 126 | 1.6 | 11.3 | 0.00 | 0.05 | 0.00 | 67 | 1010.8 |
| 20260904090014 | 27 | 184 | 3.2 | 11.3 | 0.00 | 0.05 | 0.00 | 67 | 1010.7 |
| 20260904085511 | 27 | 266 | 3.2 | 6.4 | 0.00 | 0.05 | 0.00 | 67 | 1010.7 |
| 20260904085013 | 27 | 304 | 1.6 | 11.3 | 0.00 | 0.05 | 0.00 | 67 | 1010.8 |
| 20260904084524 | 27 | 352 | 3.2 | 11.3 | 0.00 | 0.05 | 0.00 | 67 | 1010.7 |
| 20260904084013 | 27 | 153 | 3.2 | 8.0 | 0.00 | 0.05 | 0.00 | 67 | 1010.7 |
| 20260904083513 | 27 | 194 | 1.6 | 9.7 | 0.00 | 0.05 | 0.00 | 67 | 1010.7 |
| 20260904083034 | 27 | 321 | 1.6 | 9.7 | 0.00 | 0.05 | 0.00 | 66 | 1010.7 |
| 20260904082516 | 27 | 188 | 3.2 | 9.7 | 0.00 | 0.05 | 0.00 | 66 | 1010.6 |
| 20260904082012 | 27 | 285 | 1.6 | 8.0 | 0.00 | 0.05 | 0.00 | 66 | 1010.6 |
| 20260904081522 | 27 | 138 | 1.6 | 12.9 | 0.00 | 0.05 | 0.00 | 66 | 1010.6 |
| 20260904081013 | 27 | 254 | 4.8 | 12.9 | 0.00 | 0.05 | 0.00 | 66 | 1010.6 |
| 20260904080517 | 27 | 163 | 1.6 | 14.5 | 0.00 | 0.05 | 0.00 | 66 | 1010.7 |
| 20260904080025 | 27 | 136 | 3.2 | 12.9 | 0.00 | 0.05 | 0.00 | 65 | 1010.7 |
| 20260904075514 | 27 | 81 | 1.6 | 8.0 | 0.00 | 0.05 | 0.00 | 66 | 1010.7 |
| 20260904075018 | 27 | 265 | 3.2 | 8.0 | 0.00 | 0.05 | 0.00 | 65 | 1010.7 |
| 20260904074537 | 27 | 164 | 1.6 | 12.9 | 0.00 | 0.05 | 0.00 | 65 | 1010.8 |
| 20260904074013 | 27 | 178 | 3.2 | 12.9 | 0.00 | 0.05 | 0.00 | 65 | 1010.7 |
| 20260904073513 | 27 | 157 | 3.2 | 8.0 | 0.00 | 0.05 | 0.00 | 65 | 1010.7 |
| 20260904073034 | 27 | 317 | 1.6 | 8.0 | 0.00 | 0.05 | 0.00 | 66 | 1010.8 |
| 20260904072513 | 27 | 223 | 1.6 | 8.0 | 0.00 | 0.05 | 0.00 | 66 | 1010.7 |
| 20260904072016 | 27 | 332 | 1.6 | 8.0 | 0.00 | 0.05 | 0.00 | 66 | 1010.7 |
| 20260904071522 | 27 | 337 | 1.6 | 6.4 | 0.00 | 0.05 | 0.00 | 66 | 1010.7 |
| 20260904071018 | 27 | 240 | 0.0 | 8.0 | 0.00 | 0.05 | 0.00 | 66 | 1010.8 |
| 20260904070504 | 27 | 190 | 0.0 | 11.3 | 0.00 | 0.05 | 0.00 | 65 | 1010.8 |
| 20260904070002 | 27 | 174 | 1.6 | 11.3 | 0.00 | 0.05 | 0.00 | 65 | 1010.8 |
| 20260904065503 | 27 | 49 | 1.6 | 4.8 | 0.00 | 0.05 | 0.00 | 65 | 1010.8 |
| 20260904065002 | 27 | 55 | 0.0 | 9.7 | 0.00 | 0.05 | 0.00 | 65 | 1010.7 |
| 20260904064510 | 27 | 121 | 1.6 | 9.7 | 0.00 | 0.05 | 0.00 | 65 | 1010.8 |
| 20260904064002 | 27 | 199 | 0.0 | 9.7 | 0.00 | 0.05 | 0.00 | 65 | 1010.9 |
| 20260904063504 | 27 | 147 | 1.6 | 9.7 | 0.00 | 0.05 | 0.00 | 64 | 1010.8 |
| 20260904063001 | 27 | 159 | 1.6 | 11.3 | 0.00 | 0.05 | 0.00 | 64 | 1010.8 |
| 20260904062503 | 27 | 273 | 1.6 | 11.3 | 0.00 | 0.05 | 0.00 | 64 | 1010.8 |
| 20260904062002 | 27 | 213 | 1.6 | 4.8 | 0.00 | 0.05 | 0.00 | 63 | 1010.8 |
| 20260904061506 | 27 | 166 | 1.6 | 6.4 | 0.00 | 0.05 | 0.00 | 64 | 1010.7 |
| 20260904061004 | 28 | 208 | 1.6 | 9.7 | 0.00 | 0.05 | 0.00 | 63 | 1010.7 |
| 20260904060506 | 28 | 213 | 3.2 | 9.7 | 0.00 | 0.05 | 0.00 | 63 | 1010.7 |
| 20260904060004 | 28 | 323 | 1.6 | 11.3 | 0.00 | 0.05 | 0.00 | 63 | 1010.7 |
| 20260904055502 | 28 | 65 | 1.6 | 12.9 | 0.00 | 0.05 | 0.00 | 62 | 1010.7 |
| 20260904055003 | 28 | 145 | 1.6 | 12.9 | 0.00 | 0.05 | 0.00 | 62 | 1010.7 |
| 20260904054508 | 28 | 77 | 0.0 | 8.0 | 0.00 | 0.05 | 0.00 | 62 | 1010.7 |
| 20260904054002 | 28 | 218 | 1.6 | 8.0 | 0.00 | 0.05 | 0.00 | 62 | 1010.5 |
| 20260904053502 | 28 | 210 | 3.2 | 8.0 | 0.00 | 0.05 | 0.00 | 62 | 1010.3 |
| 20260904053006 | 28 | 188 | 1.6 | 17.7 | 0.00 | 0.05 | 0.00 | 62 | 1010.4 |
| 20260904052503 | 28 | 23 | 3.2 | 17.7 | 0.00 | 0.05 | 0.00 | 62 | 1010.4 |
| 20260904052005 | 28 | 126 | 3.2 | 12.9 | 0.00 | 0.05 | 0.00 | 63 | 1010.3 |
| 20260904051504 | 28 | 229 | 3.2 | 12.9 | 0.00 | 0.05 | 0.00 | 63 | 1010.3 |
| 20260904051004 | 28 | 244 | 1.6 | 12.9 | 0.00 | 0.05 | 0.00 | 63 | 1010.4 |
| 20260904050505 | 28 | 159 | 0.0 | 4.8 | 0.00 | 0.05 | 0.00 | 63 | 1010.4 |
| 20260904050005 | 28 | 233 | 1.6 | 4.8 | 0.00 | 0.05 | 0.00 | 63 | 1010.3 |
| 20260904045505 | 28 | 208 | 0.0 | 6.4 | 0.00 | 0.05 | 0.05 | 63 | 1010.3 |
| 20260904045004 | 28 | 149 | 1.6 | 8.0 | 0.00 | 0.05 | 0.05 | 63 | 1010.3 |
| 20260904044503 | 28 | 98 | 1.6 | 8.0 | 0.00 | 0.05 | 0.05 | 63 | 1010.3 |
| 20260904044003 | 28 | 167 | 3.2 | 8.0 | 0.00 | 0.05 | 0.05 | 63 | 1010.2 |
| 20260904043503 | 28 | 182 | 0.0 | 12.9 | 0.00 | 0.05 | 0.05 | 63 | 1010.3 |
| 20260904043001 | 28 | 52 | 0.0 | 12.9 | 0.00 | 0.05 | 0.05 | 63 | 1010.2 |
| 20260904042503 | 28 | 242 | 1.6 | 8.0 | 0.00 | 0.05 | 0.05 | 63 | 1010.2 |
| 20260904042002 | 28 | 315 | 0.0 | 6.4 | 0.00 | 0.05 | 0.05 | 63 | 1010.2 |
| 20260904041504 | 28 | 103 | 0.0 | 6.4 | 0.00 | 0.05 | 0.05 | 63 | 1010.3 |
| 20260904041004 | 28 | 221 | 1.6 | 6.4 | 0.00 | 0.05 | 0.05 | 62 | 1010.2 |
| 20260904040502 | 28 | 348 | 1.6 | 12.9 | 0.00 | 0.05 | 0.05 | 62 | 1010.2 |
| 20260904040006 | 28 | 25 | 3.2 | 12.9 | 0.00 | 0.05 | 0.05 | 62 | 1010.2 |
| 20260904035504 | 28 | 251 | 3.2 | 12.9 | 0.00 | 0.05 | 0.05 | 62 | 1010.2 |
| 20260904035004 | 29 | 248 | 3.2 | 11.3 | 0.00 | 0.05 | 0.05 | 62 | 1010.2 |
| 20260904034511 | 29 | 272 | 1.6 | 4.8 | 0.00 | 0.05 | 0.05 | 62 | 1010.3 |
| 20260904034007 | 29 | 160 | 0.0 | 6.4 | 0.00 | 0.05 | 0.05 | 62 | 1010.3 |
| 20260904033504 | 29 | 96 | 0.0 | 6.4 | 0.00 | 0.05 | 0.05 | 62 | 1010.3 |
| 20260904033002 | 29 | 332 | 1.6 | 8.0 | 0.00 | 0.05 | 0.05 | 62 | 1010.3 |
| 20260904032509 | 28 | 86 | 3.2 | 8.0 | 0.00 | 0.05 | 0.05 | 63 | 1010.2 |
| 20260904032008 | 28 | 104 | 0.0 | 6.4 | 0.00 | 0.05 | 0.05 | 64 | 1010.2 |
| 20260904031504 | 29 | 17 | 1.6 | 6.4 | 0.00 | 0.05 | 0.05 | 63 | 1010.2 |
| 20260904031005 | 29 | 172 | 1.6 | 6.4 | 0.00 | 0.05 | 0.05 | 63 | 1010.1 |
| 20260904030503 | 29 | 158 | 0.0 | 6.4 | 0.00 | 0.05 | 0.05 | 63 | 1010.0 |
| 20260904030001 | 29 | 82 | 1.6 | 4.8 | 0.00 | 0.05 | 0.05 | 64 | 1009.9 |
| 20260904025504 | 29 | 232 | 1.6 | 4.8 | 0.00 | 0.05 | 0.05 | 63 | 1009.9 |
| 20260904025003 | 29 | 128 | 0.0 | 3.2 | 0.00 | 0.05 | 0.05 | 64 | 1010.0 |
| 20260904024506 | 29 | 74 | 0.0 | 3.2 | 0.00 | 0.05 | 0.05 | 64 | 1009.9 |
| 20260904024003 | 29 | 80 | 0.0 | 4.8 | 0.00 | 0.05 | 0.05 | 65 | 1009.9 |
| 20260904023505 | 29 | 80 | 0.0 | 4.8 | 0.00 | 0.05 | 0.05 | 64 | 1009.9 |
| 20260904023012 | 29 | 77 | 0.0 | 4.8 | 0.00 | 0.05 | 0.05 | 64 | 1009.9 |
| 20260904022504 | 29 | 119 | 1.6 | 6.4 | 0.00 | 0.05 | 0.05 | 63 | 1009.9 |
| 20260904022006 | 30 | 121 | 0.0 | 6.4 | 0.00 | 0.05 | 0.05 | 63 | 1009.8 |
| 20260904021516 | 30 | 194 | 1.6 | 4.8 | 0.00 | 0.05 | 0.05 | 62 | 1009.8 |
| 20260904021017 | 30 | 223 | 1.6 | 4.8 | 0.00 | 0.05 | 0.05 | 62 | 1009.7 |
| 20260904020504 | 30 | 35 | 0.0 | 6.4 | 0.00 | 0.05 | 0.05 | 62 | 1009.7 |
| 20260904020006 | 30 | 212 | 1.6 | 6.4 | 0.00 | 0.05 | 0.05 | 62 | 1009.7 |
| 20260904015505 | 30 | 5 | 0.0 | 4.8 | 0.00 | 0.05 | 0.05 | 61 | 1009.7 |
| 20260904015005 | 30 | 5 | 0.0 | 6.4 | 0.00 | 0.05 | 0.05 | 60 | 1009.6 |
| 20260904014505 | 30 | 120 | 1.6 | 8.0 | 0.00 | 0.05 | 0.05 | 60 | 1009.5 |
| 20260904014005 | 30 | 231 | 1.6 | 8.0 | 0.00 | 0.05 | 0.05 | 60 | 1009.4 |
| 20260904013505 | 31 | 221 | 1.6 | 8.0 | 0.00 | 0.05 | 0.05 | 59 | 1009.3 |
| 20260904013006 | 31 | 278 | 1.6 | 8.0 | 0.00 | 0.05 | 0.05 | 59 | 1009.3 |
| 20260904012508 | 31 | 170 | 3.2 | 11.3 | 0.00 | 0.05 | 0.05 | 58 | 1009.3 |
| 20260904012012 | 31 | 178 | 1.6 | 11.3 | 0.00 | 0.05 | 0.05 | 59 | 1009.1 |
| 20260904011502 | 31 | 191 | 0.0 | 9.7 | 0.00 | 0.05 | 0.05 | 59 | 1009.0 |
| 20260904011002 | 31 | 340 | 1.6 | 8.0 | 0.00 | 0.05 | 0.05 | 59 | 1009.1 |
| 20260904010511 | 31 | 203 | 3.2 | 11.3 | 0.00 | 0.05 | 0.05 | 59 | 1009.0 |
| 20260904010020 | 31 | 198 | 4.8 | 11.3 | 0.00 | 0.05 | 0.05 | 59 | 1009.0 |
| 20260904005503 | 31 | 119 | 1.6 | 11.3 | 0.00 | 0.05 | 0.05 | 59 | 1008.9 |
| 20260904005003 | 31 | 286 | 1.6 | 12.9 | 0.00 | 0.05 | 0.05 | 59 | 1008.9 |
| 20260904004526 | 31 | 90 | 3.2 | 12.9 | 0.00 | 0.05 | 0.05 | 58 | 1008.8 |
| 20260904004004 | 31 | 197 | 1.6 | 8.0 | 0.00 | 0.05 | 0.05 | 58 | 1008.8 |
| 20260904003503 | 32 | 219 | 0.0 | 8.0 | 0.00 | 0.05 | 0.05 | 59 | 1008.8 |
| 20260904003007 | 32 | 213 | 3.2 | 8.0 | 0.00 | 0.05 | 0.05 | 58 | 1008.8 |
| 20260904002506 | 32 | 309 | 1.6 | 6.4 | 0.00 | 0.05 | 0.05 | 58 | 1008.8 |
| 20260904002004 | 32 | 200 | 1.6 | 6.4 | 0.00 | 0.05 | 0.05 | 57 | 1008.8 |
| 20260904001516 | 32 | 225 | 1.6 | 6.4 | 0.00 | 0.05 | 0.05 | 57 | 1008.8 |
| 20260904001006 | 32 | 190 | 1.6 | 6.4 | 0.00 | 0.05 | 0.05 | 56 | 1008.7 |
| 20260904000511 | 32 | 188 | 3.2 | 6.4 | 0.00 | 0.05 | 0.05 | 56 | 1008.7 |
| 20260904000014 | 32 | 200 | 1.6 | 9.7 | 0.00 | 0.05 | 0.05 | 57 | 1008.6 |
| 20260903235509 | 33 | 259 | 1.6 | 12.9 | 0.00 | 0.05 | 0.05 | 55 | 1008.6 |
| 20260903235013 | 33 | 240 | 4.8 | 12.9 | 0.00 | 0.05 | 0.05 | 55 | 1008.7 |
| 20260903234506 | 33 | 279 | 3.2 | 12.9 | 0.00 | 0.05 | 0.05 | 55 | 1008.6 |
| 20260903234009 | 33 | 42 | 4.8 | 12.9 | 0.00 | 0.05 | 0.05 | 54 | 1008.6 |
| 20260903233510 | 33 | 219 | 1.6 | 6.4 | 0.00 | 0.05 | 0.05 | 56 | 1008.6 |
| 20260903233004 | 33 | 66 | 1.6 | 12.9 | 0.00 | 0.05 | 0.05 | 53 | 1008.6 |
| 20260903232508 | 33 | 224 | 4.8 | 12.9 | 0.00 | 0.05 | 0.05 | 53 | 1008.6 |
| 20260903232005 | 33 | 333 | 4.8 | 11.3 | 0.00 | 0.05 | 0.05 | 53 | 1008.6 |
| 20260903231512 | 33 | 209 | 3.2 | 11.3 | 0.00 | 0.05 | 0.05 | 53 | 1008.6 |
| 20260903231005 | 33 | 206 | 1.6 | 9.7 | 0.00 | 0.05 | 0.05 | 53 | 1008.4 |
| 20260903230505 | 33 | 174 | 1.6 | 12.9 | 0.00 | 0.05 | 0.05 | 52 | 1008.5 |
| 20260903230015 | 34 | 173 | 4.8 | 11.3 | 0.00 | 0.05 | 0.05 | 52 | 1008.5 |
| 20260903225510 | 34 | 242 | 1.6 | 11.3 | 0.00 | 0.05 | 0.05 | 53 | 1008.4 |
| 20260903225005 | 34 | 171 | 3.2 | 9.7 | 0.00 | 0.05 | 0.05 | 52 | 1008.5 |
| 20260903224517 | 35 | 65 | 1.6 | 8.0 | 0.00 | 0.05 | 0.05 | 52 | 1008.4 |
| 20260903224011 | 35 | 114 | 1.6 | 11.3 | 0.00 | 0.05 | 0.05 | 51 | 1008.3 |
| 20260903223514 | 35 | 212 | 3.2 | 12.9 | 0.00 | 0.05 | 0.05 | 52 | 1008.3 |
| 20260903223010 | 35 | 242 | 1.6 | 14.5 | 0.00 | 0.05 | 0.05 | 53 | 1008.3 |
| 20260903222516 | 35 | 274 | 1.6 | 14.5 | 0.00 | 0.05 | 0.05 | 52 | 1008.3 |
| 20260903222018 | 35 | 12 | 4.8 | 12.9 | 0.00 | 0.05 | 0.05 | 52 | 1008.4 |
| 20260903221505 | 35 | 179 | 4.8 | 14.5 | 0.00 | 0.05 | 0.05 | 53 | 1008.3 |
| 20260903221006 | 35 | 336 | 3.2 | 14.5 | 0.00 | 0.05 | 0.05 | 52 | 1008.3 |
| 20260903220505 | 35 | 295 | 3.2 | 19.3 | 0.00 | 0.05 | 0.05 | 53 | 1008.4 |
| 20260903220013 | 35 | 254 | 3.2 | 19.3 | 0.00 | 0.05 | 0.05 | 52 | 1008.3 |
| 20260903215509 | 35 | 74 | 3.2 | 16.1 | 0.00 | 0.05 | 0.05 | 51 | 1008.4 |
| 20260903215012 | 35 | 163 | 1.6 | 16.1 | 0.00 | 0.05 | 0.05 | 53 | 1008.4 |
| 20260903214519 | 35 | 101 | 3.2 | 16.1 | 0.00 | 0.05 | 0.05 | 52 | 1008.3 |
| 20260903214011 | 35 | 189 | 4.8 | 16.1 | 0.00 | 0.05 | 0.05 | 52 | 1008.4 |
| 20260903213515 | 35 | 79 | 3.2 | 12.9 | 0.00 | 0.05 | 0.05 | 53 | 1008.4 |
| 20260903213010 | 35 | 192 | 4.8 | 14.5 | 0.00 | 0.05 | 0.05 | 53 | 1008.5 |
| 20260903212516 | 35 | 180 | 3.2 | 14.5 | 0.00 | 0.05 | 0.05 | 51 | 1008.5 |
| 20260903212011 | 35 | 126 | 3.2 | 11.3 | 0.00 | 0.05 | 0.05 | 52 | 1008.4 |
| 20260903211518 | 35 | 220 | 4.8 | 12.9 | 0.00 | 0.05 | 0.05 | 51 | 1008.5 |
| 20260903211014 | 35 | 159 | 6.4 | 12.9 | 0.00 | 0.05 | 0.05 | 52 | 1008.5 |
| 20260903210518 | 35 | 289 | 1.6 | 11.3 | 0.00 | 0.05 | 0.05 | 54 | 1008.5 |